Weather History for KTQE - November, 2011

Change the Weather History Date:

Thursday, November 17, 2011

  Actual Average Record
Temperature  
Mean Temperature 36 °F -  
Max Temperature 50 °F 50 °F 72 °F (1953)
Min Temperature 21 °F 27 °F -3 °F (1959)
Degree Days  
Heating Degree Days 30    
Moisture  
Dew Point 16 °F    
Average Humidity 48    
Maximum Humidity 72    
Minimum Humidity 26    
Precipitation  
Precipitation 0.00 in - - ()
Sea Level Pressure  
Sea Level Pressure 30.09 in    
Wind  
Wind Speed 12 mph (SSW)    
Max Wind Speed 22 mph    
Max Gust Speed 31 mph    
Visibility 10 miles    
Events      
Averages and records for this station are not official NWS values.
T = Trace of Precipitation, MM = Missing Value Source: NWS Daily Summary

Daily Weather History Graph

Daily Weather History Graph

Search for Another Location

Airport or City:

Trip Planner

Search our weather history database for the weather conditions in past years. The results will help you decide how hot, cold, wet, or windy it might be!

Date:

Astronomy

Nov. 17, 2011 Rise Set
Actual Time 7:16 AM CST 5:02 PM CST
Civil Twilight 6:46 AM CST 5:32 PM CST
Nautical Twilight 6:12 AM CST 6:06 PM CST
Astronomical Twilight 5:39 AM CST 6:39 PM CST
Moon 11:26 PM CST (11/17) 12:24 PM CST (11/17)
Length of Visible Light 10h 46m
Length of Day
9h 46m
Waning Gibbous, 59% of the Moon is Illuminated
Nov 17
Waning Gibbous
Nov 18
Last Quarter
Nov 25
New
Dec 2
First Quarter
Dec 10
Full

Hourly Weather History & Observations

Time (CST) Temp. Windchill Dew Point Humidity Pressure Visibility Wind Dir Wind Speed Gust Speed Precip Events Conditions
12:54 AM 21.0 °F 14.6 °F 6.1 °F 53% 30.30 in 10.0 mi WSW 4.6 mph - N/A   Clear
1:54 AM 21.0 °F 9.9 °F 7.0 °F 55% 30.29 in 10.0 mi WSW 10.4 mph - N/A   Clear
2:54 AM 23.0 °F 12.4 °F 9.0 °F 55% 30.28 in 10.0 mi WSW 10.4 mph - N/A   Clear
4:54 AM 24.1 °F 13.7 °F 10.0 °F 55% 30.27 in 10.0 mi WSW 10.4 mph - N/A   Clear
6:54 AM 21.9 °F 11.7 °F 14.0 °F 72% 30.26 in 10.0 mi SW 9.2 mph - N/A   Clear
7:54 AM 23.0 °F 12.4 °F 15.1 °F 72% 30.26 in 10.0 mi SW 10.4 mph - N/A   Clear
8:54 AM 28.0 °F 17.0 °F 17.1 °F 63% 30.27 in 10.0 mi SW 13.8 mph - N/A   Clear
9:54 AM 34.0 °F - 18.0 °F 52% 30.26 in 10.0 mi Calm Calm - N/A   Clear
11:54 AM 44.1 °F 37.1 °F 15.1 °F 31% 30.18 in 10.0 mi South 15.0 mph - N/A   Clear
12:54 PM 46.9 °F - 15.1 °F 28% 30.12 in 10.0 mi North - - N/A   Clear
2:54 PM 50.0 °F - 17.1 °F 27% 30.04 in 10.0 mi South 19.6 mph - N/A   Clear
3:54 PM 48.9 °F - 15.1 °F 26% 30.01 in 10.0 mi South 21.9 mph 31.1 mph N/A   Clear
4:54 PM 45.0 °F 37.9 °F 18.0 °F 34% 29.99 in 10.0 mi South 16.1 mph - N/A   Clear
5:54 PM 43.0 °F 35.1 °F 18.0 °F 37% 29.96 in 10.0 mi South 17.3 mph - N/A   Clear
6:54 PM 42.1 °F 34.2 °F 21.0 °F 43% 29.96 in 10.0 mi South 16.1 mph - N/A   Clear
7:54 PM 41.0 °F 31.9 °F 23.0 °F 49% 29.94 in 10.0 mi South 19.6 mph - N/A   Clear
8:54 PM 41.0 °F 31.6 °F 21.9 °F 47% 29.91 in 10.0 mi South 20.7 mph 29.9 mph N/A   Clear
9:54 PM 39.9 °F 30.0 °F 23.0 °F 51% 29.88 in 10.0 mi South 21.9 mph 29.9 mph N/A   Clear
10:54 PM 39.9 °F 30.0 °F 23.0 °F 51% 29.86 in 10.0 mi South 21.9 mph 27.6 mph N/A   Clear
11:54 PM 39.9 °F 30.8 °F 23.0 °F 51% 29.83 in 10.0 mi South 18.4 mph - N/A   Clear